Location: Newark
(47.5833°N, 8.1500°E)
Time: 11:13:00
(UTC+00:00)

Vanguard 2 Rocket - Pass Details

Date: 27 October 2020
Orbit: 553 x 3326 km, 32.9° (Epoch: 04 December)

Event Time Altitude Azimuth Distance (km) Brightness Sun altitude
Rises 21:39:32 0° 249° (WSW) 3,260 - -50.6°
Reaches altitude 10° 21:42:27 10° 229° (SW) 2,620 - -50.9°
Maximum altitude 21:46:32 18° 188° (S) 2,526 - -51.3°
Drops below altitude 10° 21:52:01 10° 150° (SSE) 3,702 - -51.8°
Sets 21:57:22 0° 134° (SE) 5,291 - -52.3°
